Skip Page Navigation
NASA JPL Caltech
NASA Logo - Jet Propulsion Laboratory + View the NASA Portal
+ Center for Near-Earth Object Studies
JPL Home Earth Solar System Stars & Galaxies Technology
JPL Solar System Dynamics
BODIES ORBITS EPHEMERIDES TOOLS PHYSICAL DATA DISCOVERY FAQ SITE MAP
JPL Small-Body Database Browser
Search: [ help ]  
376714 (1996 GD7)
Classification: Main-belt Asteroid          SPK-ID: 2376714
Ephemeris | Orbit Diagram | Orbital Elements | Mission Design | Physical Parameters | Discovery Circumstances | Close-Approach Data ]

[ show orbit diagram ]
Orbital Elements at Epoch 2459000.5 (2020-May-31.0) TDB
Reference: JPL 11 (heliocentric ecliptic J2000)
 Element Value Uncertainty (1-sigma)   Units 
e .2436379135744574 7.228e-08  
a 2.977257960103137 3.047e-08 au
q 2.251885042530664 2.0502e-07 au
i 2.371170582662853 7.4975e-06 deg
node 48.79433665893559 0.00021384 deg
peri 211.446913171135 0.00021461 deg
M 220.3678955370048 1.8848e-05 deg
tp 2459728.289703829245
(2022-May-28.78970383)
0.00010337 TDB
period 1876.390063632991
5.14
2.8805e-05
7.886e-08
d
yr
n .1918577629338873 2.9452e-09 deg/d
Q 3.70263087767561 3.7893e-08 au
  Orbit Determination Parameters
   # obs. used (total)      83  
   data-arc span      8249 days (22.58 yr)  
   first obs. used      1996-04-12  
   last obs. used      2018-11-12  
   planetary ephem.      DE431  
   SB-pert. ephem.      SB431-N16  
   condition code      0  
   norm. resid. RMS      .61982  
   source      ORB  
   producer      Otto Matic  
   solution date      2019-Jul-13 13:25:08  

Additional Information
 Earth MOID = 1.23698 au 
 Jupiter MOID = 1.38221 au 
 T_jup = 3.214 
[ hide covariance matrix ]
Orbital Elements at Epoch 2456972.5 (2014-Nov-11.0) TDB
Reference: JPL 11 (heliocentric ecliptic J2000)
 Element Value Uncertainty (1-sigma)   Units 
e .2462141070236236 7.2233e-08  
q 2.240968372073673 2.0521e-07 au
tp 2457850.631701942348
(2017-Apr-07.13170194)
9.0832e-05 TDB
node 48.89166978002967 0.00021394 deg
peri 211.4257773092847 0.0002147 deg
i 2.372731206757261 7.4986e-06 deg
  Orbit Determination Parameters
   # obs. used (total)      83  
   data-arc span      8249 days (22.58 yr)  
   first obs. used      1996-04-12  
   last obs. used      2018-11-12  
   planetary ephem.      DE431  
   SB-pert. ephem.      SB431-N16  
   condition code      0  
   norm. resid. RMS      .61982  
   source      ORB  
   producer      Otto Matic  
   solution date      2019-Jul-13 13:25:08  

Additional Information
 Jupiter MOID = 1.38221 au 
 T_jup = 3.214 
Orbit Covariance (6×6)
  e q tp node peri i
e 5.217588175794848E-15 -1.475321265072049E-14 2.267735048249096E-12 4.397799571803005E-14 3.880016284204125E-13 -1.880717695282333E-15
q -1.475321265072049E-14 4.21112059573203E-14 -6.249040503804192E-12 -1.218227471259277E-13 -1.120226993461369E-12 5.434976742091525E-15
tp 2.267735048249096E-12 -6.249040503804192E-12 8.250452937057342E-9 8.937260856021579E-11 1.729779263118192E-9 1.390887365119436E-12
node 4.397799571803005E-14 -1.218227471259277E-13 8.937260856021579E-11 4.577011295388334E-8 -4.570997528400514E-8 -9.248004067157199E-11
peri 3.880016284204125E-13 -1.120226993461369E-12 1.729779263118192E-9 -4.570997528400514E-8 4.60959884009709E-8 9.265493108725655E-11
i -1.880717695282333E-15 5.434976742091525E-15 1.390887365119436E-12 -9.248004067157199E-11 9.265493108725655E-11 5.622864679967636E-11

Ephemeris | Orbit Diagram | Orbital Elements | Mission Design | Physical Parameters | Discovery Circumstances | Close-Approach Data ]

Physical Parameter Table
Parameter Symbol Value Units Sigma Reference Notes
absolute magnitude H 16.7   n/a MPO418908  

376714 (1996 GD7)          Discovered 1996-Apr-12 by Spacewatch at Kitt Peak
Reference: Last Updated: 2013-11-20

[ show close-approach data ]
Alternate Designations
 1996 GD7 = 2006 ED9 
Ephemeris | Orbit Diagram | Orbital Elements | Mission Design | Physical Parameters | Discovery Circumstances | Close-Approach Data ]
ABOUT SSD CREDITS/AWARDS PRIVACY/COPYRIGHT GLOSSARY LINKS
FirstGov 2020-Oct-22 01:45 UT
(server date/time)  
NASA Home Page
Site Manager:   Ryan S. Park
Webmaster  Alan B. Chamberlin